This is the latest recevied weather packets stored in our database for station/object KD8OUK. If no packets are shown the sender has not sent any weather packets the latest 10 day(s).
| Time | Temp. | Humidity | Pressure | Rain* | Wind** | Luminosity | Snow |
|---|---|---|---|---|---|---|---|
| 1777736720 | 7.78° C | 61% | 1018.9 hPa | 0 mm | - | - | - |
| 1777736419 | 6.67° C | 65% | 1018.9 hPa | 0 mm | - | - | - |
| 1777736117 | 6.67° C | 64% | 1018.7 hPa | 0.25 mm | - | - | - |
| 1777735826 | 7.22° C | 60% | 1018.7 hPa | 0.25 mm | - | - | - |
| 1777735520 | 7.78° C | 59% | 1018.7 hPa | 0.25 mm | - | - | - |
| 1777735229 | 7.78° C | 59% | 1018.7 hPa | 0.25 mm | - | - | - |
| 1777734921 | 7.22° C | 61% | 1018.7 hPa | 0.25 mm | - | - | - |
| 1777734631 | 7.22° C | 64% | 1018.6 hPa | 0.25 mm | - | - | - |
| 1777734323 | 6.67° C | 66% | 1018.6 hPa | 0.25 mm | - | - | - |
| 1777734015 | 7.22° C | 68% | 1018.6 hPa | 0.25 mm | - | - | - |
| 1777733726 | 6.67° C | 70% | 1018.6 hPa | 0.25 mm | - | - | - |
| 1777733418 | 6.11° C | 69% | 1018.6 hPa | 0.25 mm | - | - | - |
| 1777733128 | 5.56° C | 72% | 1018.7 hPa | 0.25 mm | - | - | - |
| 1777732820 | 5.56° C | 73% | 1018.7 hPa | 0.25 mm | - | - | - |
| 1777732550 | 5° C | 75% | 1018.6 hPa | 0 mm | - | - | - |
| 1777732222 | 5° C | 74% | 1018.6 hPa | 0 mm | - | - | - |
| 1777731932 | 5° C | 77% | 1018.6 hPa | 0 mm | - | - | - |
| 1777731624 | 4.44° C | 77% | 1018.7 hPa | 0 mm | - | - | - |
| 1777731317 | 4.44° C | 78% | 1018.7 hPa | 0 mm | - | - | - |
| 1777731027 | 4.44° C | 80% | 1018.8 hPa | 0 mm | - | - | - |
| 1777730719 | 4.44° C | 83% | 1018.8 hPa | 0 mm | - | - | - |
| 1777730429 | 3.89° C | 85% | 1018.6 hPa | 0 mm | - | - | - |
| 1777730121 | 3.89° C | 85% | 1018.6 hPa | 0 mm | - | - | - |
| 1777729831 | 3.33° C | 86% | 1018.6 hPa | 0 mm | - | - | - |
| 1777729525 | 3.33° C | 89% | 1018.6 hPa | 0 mm | - | - | - |
* Rain latest hour (hover to see other rain measurements)
** Current wind speed in m/s (hover to see current wind gust speed)